Location: Benesov
(49.7804°N, 14.6777°E)
Time: 13:24:48
(UTC+02:00)

ISS - Visible Passes

Search period start: 23 July 2018 00:00
Search period end: 02 August 2018 00:00
Orbit: 402 x 408 km, 51.6° (Epoch: 23 July)

Date Brightness Start Highest point End Pass type
(mag) Time Alt. Az. Time Alt. Az. Time Alt. Az.
23 Jul -3.7 01:16:30 10° WNW 01:19:47 73° N 01:20:53 38° E visible
23 Jul -1.3 02:53:06 10° W 02:53:23 12° W 02:53:23 12° W visible
23 Jul -3.7 22:47:41 10° W 22:50:58 78° NNW 22:54:16 10° ENE visible
24 Jul -3.4 00:24:22 10° WNW 00:27:38 63° N 00:29:11 28° E visible
24 Jul -1.6 02:00:54 10° WNW 02:01:47 17° W 02:01:47 17° W visible
24 Jul -3.9 21:55:33 10° WSW 21:58:50 81° SSE 22:02:07 10° ENE visible
24 Jul -3.3 23:32:11 10° W 23:35:27 60° N 23:38:13 14° E visible
25 Jul -2.7 01:08:45 10° WNW 01:10:50 35° WNW 01:10:50 35° WNW visible
25 Jul -3.4 22:39:58 10° W 22:43:14 62° N 22:46:31 10° ENE visible
26 Jul -3.8 00:16:37 10° WNW 00:19:54 79° NNE 00:20:04 76° NE visible
26 Jul -3.6 21:47:46 10° W 21:51:03 72° N 21:54:20 10° ENE visible
26 Jul -3.5 23:24:26 10° WNW 23:27:43 66° N 23:29:23 26° E visible
27 Jul -1.6 01:00:59 10° WNW 01:02:01 18° W 01:02:01 18° W visible
27 Jul -3.3 22:32:14 10° W 22:35:30 60° N 22:38:45 10° E visible
28 Jul -3.3 00:08:47 10° WNW 00:11:24 51° W 00:11:24 51° W visible
28 Jul -3.3 21:40:00 10° W 21:43:15 61° N 21:46:31 10° ENE visible
28 Jul -3.9 23:16:36 10° WNW 23:19:53 86° N 23:20:49 44° ESE visible
29 Jul -1.0 00:53:20 10° W 00:53:27 11° W 00:53:27 11° W visible
29 Jul -3.6 22:24:24 10° WNW 22:27:41 70° N 22:30:16 15° E visible
30 Jul -2.4 00:00:58 10° W 00:02:53 28° WSW 00:02:53 28° WSW visible
30 Jul -3.4 21:32:10 10° WNW 21:35:26 61° N 21:38:41 10° E visible
30 Jul -3.8 23:08:42 10° WNW 23:11:58 61° SSW 23:12:21 54° SSE visible
31 Jul -3.9 22:16:28 10° WNW 22:19:46 85° SSW 22:21:51 21° ESE visible
31 Jul -1.6 23:53:19 10° W 23:54:29 17° WSW 23:54:29 17° WSW visible
01 Aug -3.7 21:24:15 10° WNW 21:27:31 75° NNE 21:30:49 10° E visible
01 Aug -3.0 23:00:51 10° W 23:03:52 34° SSW 23:03:59 34° SSW visible
